[[{"header":{"parameterUnit":"m.s-1","parameterCategory":1,"la1":30.2991,"la2":30.254,"lo1":-89.0895,"lo2":-89.0444,"dy":0.0017,"dx":0.0017,"nx":28,"ny":28,"refTime":"2024-06-30T09:00:00:Z","depth":0,"parameterNumber":2,"parameterNumberName":"U-component_of_WINDS"},"data":[0,0,0,0,0,0,0,0,0,0,0,0,0,0,0,0,0,0,0,0,0,0,0,0,0,0,0,0,0,0,0,0,0,0,0,0,0,0,0,0,0,0,0,0,0,0,0,0,0,0,0,0,0,0,0,0,0,0,-0.2434,-0.2434,0,-0.2433,-0.2433,-0.2433,-0.2465,-0.2466,-0.2467,-0.2467,-0.2462,-0.2461,-0.246,0,0,0,0,0,0,0,0,0,0,0,0,0,-0.2462,-0.2461,-0.2434,-0.2434,-0.2434,-0.2433,-0.2433,-0.2433,-0.2465,-0.2466,-0.2467,-0.2468,-0.2463,-0.2462,-0.246,0,0,0,0,0,0,0,0,0,0,0,0,0,-0.2454,-0.2461,-0.2434,-0.245,-0.2451,-0.2433,-0.2433,-0.2433,-0.2464,-0.2466,-0.2467,-0.2468,-0.2463,-0.2462,-0.246,-0.2425,0,0,-0.2456,-0.2455,0,0,0,0,0,0,0,0,-0.2455,-0.2453,-0.2448,-0.2449,-0.245,-0.245,-0.2441,-0.243,-0.2464,-0.2459,-0.2467,-0.2469,-0.2457,-0.2456,-0.2453,-0.2425,-0.2425,-0.2456,-0.2455,-0.2454,-0.2454,0,0,0,0,0,0,0,-0.2455,-0.2453,-0.2433,-0.2447,-0.2449,-0.2456,-0.2457,-0.2439,-0.2451,-0.246,-0.2462,-0.2462,-0.2458,-0.2454,-0.2453,-0.2425,-0.2456,-0.2455,-0.2454,-0.2453,-0.237,-0.2369,0,0,0,0,0,0,-0.2454,-0.2454,-0.2433,-0.2433,-0.2456,-0.2455,-0.2455,-0.2449,-0.2451,-0.2453,-0.2461,-0.2463,-0.2456,-0.2455,-0.2453,-0.2414,-0.2454,-0.2453,-0.2452,-0.2371,-0.237,-0.2368,0,0,0,0,0,0,-0.2454,-0.2452,-0.2434,-0.2444,-0.2442,-0.2453,-0.2446,-0.2448,-0.2445,-0.2452,-0.2454,-0.2455,-0.2457,-0.2455,-0.2433,-0.2414,-0.2452,-0.2451,-0.2373,-0.2371,-0.2369,-0.2334,0,0,0,0,0,0,-0.2455,-0.2452,-0.2439,-0.2444,-0.2442,-0.2414,-0.2445,-0.2447,-0.2442,-0.2446,-0.2447,-0.2448,-0.2458,-0.2435,-0.2431,-0.2413,-0.245,-0.2375,-0.2372,-0.237,-0.2337,-0.2331,-0.2326,0,0,0,0,0,-0.2456,-0.2428,-0.2438,-0.2436,-0.2426,-0.2413,-0.2411,-0.2424,-0.2441,-0.2428,-0.2433,-0.2448,-0.2416,-0.2432,-0.2428,-0.2409,-0.2376,-0.2373,-0.237,-0.2339,-0.2332,-0.2326,0,0,0,0,0,0,-0.2419,-0.2429,-0.244,-0.2413,-0.2412,-0.2418,-0.2402,-0.2416,-0.2409,-0.2412,-0.2428,-0.2427,-0.2403,-0.2404,-0.2421,-0.2377,-0.2399,-0.2395,-0.2377,-0.237,-0.2365,-0.2366,-0.2449,0,0,0,0,0,-0.2409,-0.2398,-0.2406,-0.2381,-0.238,-0.2391,-0.2386,-0.2396,-0.2395,-0.2394,-0.2397,-0.2395,-0.2385,-0.2377,-0.2368,-0.2337,-0.2338,-0.2322,-0.2317,-0.2312,-0.2309,-0.2294,-0.2288,-0.2358,-0.2358,-0.2358,0,0,-0.2385,-0.2389,-0.2381,-0.2374,-0.2375,-0.2363,-0.2391,-0.2376,-0.2368,-0.2392,-0.2372,-0.2374,-0.2372,-0.2346,-0.2334,-0.2345,-0.229,-0.2308,-0.2305,-0.2304,-0.229,-0.2284,-0.2278,-0.2356,-0.2356,-0.2357,0,0,-0.2338,-0.2339,-0.232,-0.232,-0.2321,-0.2328,-0.2323,-0.2328,-0.2331,-0.2311,-0.2329,-0.2318,-0.23,-0.2299,-0.2295,-0.2248,-0.2263,-0.2245,-0.2217,-0.2202,-0.2197,-0.2192,-0.2176,-0.217,-0.2241,-0.2241,-0.2241,0,-0.2308,-0.2292,-0.2307,-0.2293,-0.229,-0.2312,-0.2293,-0.2292,-0.2289,-0.2286,-0.2299,-0.2278,-0.2278,-0.2252,-0.2241,-0.2237,-0.2232,-0.2245,-0.2196,-0.2192,-0.2187,-0.2173,-0.2167,-0.2239,-0.2239,-0.2239,-0.224,0,-0.2257,-0.2245,-0.223,-0.2228,-0.2223,-0.2206,-0.2218,-0.2211,-0.2222,-0.2228,-0.2208,-0.2209,-0.2201,-0.2196,-0.2205,-0.2172,-0.2179,-0.2194,-0.2217,-0.2178,-0.2165,-0.2159,-0.2236,-0.2237,-0.2237,-0.2238,0,0,-0.2186,-0.2195,-0.2189,-0.2189,-0.2192,-0.2183,-0.2167,-0.2161,-0.2155,-0.2152,-0.2139,-0.2124,-0.2138,-0.2134,-0.2144,-0.2131,-0.2096,-0.2147,-0.2148,-0.2139,-0.206,-0.205,-0.2044,-0.2105,-0.2104,-0.2103,-0.2061,0,-0.2141,-0.2116,-0.213,-0.2102,-0.2092,-0.2114,-0.21,-0.21,-0.2105,-0.2097,-0.2102,-0.2092,-0.2111,-0.2109,-0.2097,-0.2102,-0.208,-0.2105,-0.2093,-0.2093,-0.2094,-0.2037,-0.2025,-0.1986,-0.2056,-0.2055,-0.2054,0,-0.2085,-0.2082,-0.2054,-0.2061,-0.2057,-0.2044,-0.2041,-0.2032,-0.2033,-0.2038,-0.2035,-0.2048,-0.2032,-0.2054,-0.2033,-0.205,-0.2046,-0.2048,-0.2047,-0.2047,-0.2072,-0.2036,-0.1974,-0.1968,-0.2046,-0.2047,-0.2047,0,-0.2039,-0.2027,-0.2009,-0.2009,-0.2015,-0.2006,-0.2008,-0.201,-0.2006,-0.2002,-0.2,-0.1994,-0.199,-0.1985,-0.1996,-0.2011,-0.1974,-0.1997,-0.1978,-0.1978,-0.197,-0.1971,-0.1907,-0.1965,-0.1965,-0.1965,-0.1965,0,-0.1988,-0.197,-0.1989,-0.1978,-0.1959,-0.1974,-0.1955,-0.1959,-0.1961,-0.1951,-0.1968,-0.1958,-0.1973,-0.1965,-0.1973,-0.1955,-0.1953,-0.1957,-0.1959,-0.1956,-0.1956,-0.1954,-0.1957,-0.1964,-0.1964,-0.1964,-0.1964,0,-0.1933,-0.1944,-0.1927,-0.1935,-0.1936,-0.1922,-0.1929,-0.1919,-0.1926,-0.1913,-0.1911,-0.1922,-0.1913,-0.1923,-0.1914,-0.192,-0.1897,-0.1902,-0.1897,-0.1899,-0.188,-0.1882,-0.1814,-0.1807,-0.1868,-0.1868,-0.1867,0,-0.19,-0.1887,-0.1895,-0.189,-0.1892,-0.1883,-0.188,-0.1895,-0.189,-0.1891,-0.1881,-0.1874,-0.1869,-0.1854,-0.186,-0.1854,-0.1861,-0.1837,-0.186,-0.1857,-0.1862,-0.1863,-0.1863,-0.1833,-0.1832,-0.1832,-0.1831,0,-0.1842,-0.1848,-0.1843,-0.1841,-0.1836,-0.1834,-0.1834,-0.1828,-0.1844,-0.1838,-0.183,-0.1826,-0.1819,-0.1812,-0.1808,-0.1809,-0.1823,-0.1824,-0.182,-0.1816,-0.1815,-0.1817,-0.1886,-0.1826,-0.1826,-0.1826,-0.1827,-0.1827,-0.1798,-0.1788,-0.1792,-0.1786,-0.1788,-0.1787,-0.1779,-0.1786,-0.1779,-0.1775,-0.1784,-0.1774,-0.1776,-0.1772,-0.1772,-0.1764,-0.1774,-0.1767,-0.1766,-0.1764,-0.1762,-0.1815,-0.1763,-0.1763,-0.1763,-0.1763,-0.1764,0,-0.1742,-0.1746,-0.174,-0.174,-0.1735,-0.1749,-0.175,-0.1745,-0.1736,-0.1737,-0.1733,-0.1724,-0.1717,-0.1724,-0.1718,-0.1711,-0.1717,-0.1709,-0.1711,-0.1711,-0.1753,-0.1758,-0.1704,-0.1704,-0.1704,-0.1704,-0.1704,-0.1704,-0.1712,-0.1697,-0.1704,-0.169,-0.1694,-0.1686,-0.1685,-0.1684,-0.1686,-0.1676,-0.1671,-0.1675,-0.1679,-0.1674,-0.1669,-0.1671,-0.1669,-0.1659,-0.1663,-0.1702,-0.1708,-0.1713,-0.1718,-0.1658,-0.1658,-0.1622,-0.1622,-0.1622]},{"header":{"parameterUnit":"m.s-1","parameterCategory":1,"la1":30.2991,"la2":30.254,"lo1":-89.0895,"lo2":-89.0444,"dy":0.0017,"dx":0.0017,"nx":28,"ny":28,"refTime":"2024-06-30T09:00:00:Z","depth":0,"parameterNumber":3,"parameterNumberName":"V-component_of_WINDS"},"data":[0,0,0,0,0,0,0,0,0,0,0,0,0,0,0,0,0,0,0,0,0,0,0,0,0,0,0,0,0,0,0,0,0,0,0,0,0,0,0,0,0,0,0,0,0,0,0,0,0,0,0,0,0,0,0,0,0,0,3.8592,3.8592,0,3.8638,3.8639,3.8639,3.8658,3.8658,3.8658,3.8658,3.8699,3.87,3.8701,0,0,0,0,0,0,0,0,0,0,0,0,0,3.8507,3.8508,3.8592,3.8592,3.8593,3.8638,3.8639,3.864,3.8658,3.8658,3.8658,3.8658,3.8698,3.8699,3.8701,0,0,0,0,0,0,0,0,0,0,0,0,0,3.8548,3.8509,3.8592,3.8608,3.861,3.8638,3.8639,3.864,3.8658,3.8658,3.8658,3.8658,3.8698,3.8699,3.8701,3.8714,0,0,3.8706,3.8707,0,0,0,0,0,0,0,0,3.8545,3.8551,3.8605,3.8607,3.8609,3.8643,3.8624,3.8664,3.8658,3.864,3.8658,3.8658,3.868,3.8683,3.8692,3.8716,3.8718,3.8707,3.8708,3.8708,3.8709,0,0,0,0,0,0,0,3.8542,3.8549,3.861,3.8606,3.8608,3.8609,3.8615,3.8632,3.866,3.8641,3.8643,3.8649,3.8681,3.869,3.8693,3.8719,3.8706,3.8708,3.8709,3.871,3.8748,3.8748,0,0,0,0,0,0,3.8538,3.8546,3.8609,3.8611,3.8576,3.8611,3.8617,3.8632,3.866,3.8664,3.8649,3.8649,3.8687,3.8691,3.8694,3.8707,3.8708,3.871,3.8711,3.8748,3.8748,3.8748,0,0,0,0,0,0,3.8536,3.8544,3.8607,3.8579,3.8587,3.8612,3.8629,3.8633,3.8642,3.8665,3.8669,3.8654,3.8687,3.8692,3.8708,3.8709,3.8711,3.8712,3.8748,3.8748,3.8748,3.8736,0,0,0,0,0,0,3.8534,3.8543,3.8552,3.8579,3.8589,3.8624,3.8629,3.8634,3.8646,3.8647,3.8671,3.8675,3.8687,3.8705,3.871,3.8711,3.8714,3.8748,3.8748,3.8748,3.8736,3.8735,3.8735,0,0,0,0,0,3.8531,3.8546,3.8552,3.856,3.8601,3.8624,3.8629,3.8645,3.8646,3.8653,3.8666,3.8674,3.8708,3.8707,3.8712,3.8714,3.8748,3.8748,3.8748,3.8737,3.8736,3.8735,0,0,0,0,0,0,3.8518,3.8551,3.8557,3.8583,3.86,3.8627,3.8636,3.8644,3.866,3.8661,3.8677,3.8682,3.8696,3.8707,3.8705,3.8724,3.8728,3.8729,3.8718,3.8717,3.8716,3.8712,3.8715,0,0,0,0,0,3.8518,3.8537,3.8563,3.8583,3.8591,3.8612,3.8623,3.8633,3.8651,3.8658,3.8673,3.8687,3.87,3.8709,3.8723,3.8737,3.874,3.874,3.874,3.8739,3.8739,3.8741,3.874,3.8748,3.8748,3.8748,0,0,3.8518,3.8538,3.855,3.8581,3.8596,3.861,3.8618,3.8636,3.8645,3.866,3.8676,3.8687,3.8703,3.8717,3.8724,3.8726,3.8737,3.8739,3.8738,3.8739,3.8741,3.874,3.874,3.8748,3.8748,3.8748,0,0,3.8526,3.8546,3.8561,3.8575,3.8597,3.861,3.8613,3.8637,3.8645,3.8661,3.8671,3.868,3.8705,3.8715,3.8723,3.8726,3.8732,3.873,3.8725,3.8727,3.8726,3.8726,3.8723,3.8722,3.873,3.873,3.873,0,3.8523,3.855,3.8568,3.8583,3.8594,3.8608,3.862,3.8632,3.8656,3.8661,3.8664,3.8691,3.8703,3.8717,3.8717,3.8724,3.8725,3.8728,3.8726,3.8725,3.8725,3.8722,3.8722,3.8729,3.873,3.873,3.873,0,3.8542,3.856,3.8569,3.8593,3.8604,3.8618,3.8634,3.8642,3.865,3.866,3.8673,3.8687,3.8702,3.8706,3.8714,3.8718,3.8718,3.8723,3.8727,3.8723,3.8721,3.872,3.8729,3.8729,3.8729,3.8729,0,0,3.8548,3.8577,3.858,3.8587,3.861,3.8621,3.8632,3.8648,3.8652,3.8667,3.8673,3.8691,3.8693,3.8702,3.871,3.8712,3.8708,3.8716,3.8716,3.8711,3.8707,3.8702,3.8702,3.8712,3.8712,3.8712,3.8705,0,3.8556,3.8581,3.8594,3.861,3.8623,3.8632,3.8641,3.8653,3.8661,3.867,3.8678,3.8688,3.8693,3.8698,3.87,3.8708,3.8707,3.8709,3.8714,3.8714,3.8709,3.8701,3.8697,3.8691,3.8704,3.8704,3.8704,0,3.8572,3.8585,3.8603,3.8618,3.8623,3.8632,3.8643,3.8653,3.8663,3.8668,3.8675,3.8683,3.8689,3.8692,3.8699,3.8699,3.8701,3.8705,3.8705,3.8705,3.8708,3.8698,3.869,3.8688,3.8704,3.8704,3.8704,0,3.8568,3.8591,3.8603,3.861,3.8629,3.8633,3.864,3.8651,3.8657,3.8666,3.8669,3.8677,3.8682,3.8686,3.8693,3.8695,3.8697,3.8702,3.8698,3.8697,3.8698,3.8698,3.8687,3.8702,3.8702,3.8702,3.8702,0,3.8576,3.8585,3.8601,3.8609,3.8617,3.8629,3.8636,3.8644,3.8652,3.8657,3.8666,3.867,3.868,3.8684,3.8689,3.8691,3.8693,3.8694,3.8695,3.8693,3.8692,3.8694,3.8694,3.8702,3.8702,3.8702,3.8702,0,3.8575,3.8587,3.86,3.8614,3.8618,3.8623,3.8634,3.8638,3.8645,3.8651,3.8653,3.8663,3.8667,3.8675,3.8682,3.8684,3.8684,3.8687,3.8681,3.8681,3.8676,3.8675,3.8664,3.8662,3.8681,3.868,3.868,0,3.8578,3.8586,3.86,3.8605,3.8612,3.862,3.8625,3.8634,3.8639,3.8648,3.865,3.8655,3.866,3.8665,3.867,3.8674,3.8675,3.8671,3.8676,3.8671,3.8671,3.867,3.8669,3.867,3.867,3.8669,3.8669,0,3.8582,3.8585,3.8595,3.8603,3.8609,3.8616,3.8624,3.8626,3.8636,3.8639,3.8644,3.8648,3.8652,3.8655,3.8659,3.8662,3.8665,3.8667,3.8666,3.8663,3.8658,3.8657,3.8675,3.8668,3.8668,3.8668,3.8668,3.8668,3.8581,3.8586,3.8595,3.8602,3.8608,3.8613,3.8617,3.8623,3.8627,3.8633,3.8637,3.864,3.8644,3.8649,3.8651,3.865,3.8653,3.8652,3.8651,3.865,3.8647,3.8659,3.8651,3.8651,3.8651,3.8651,3.8651,0,3.8582,3.8587,3.8594,3.8603,3.8606,3.861,3.8617,3.8619,3.8622,3.8626,3.8629,3.8631,3.8633,3.8636,3.8637,3.8635,3.8637,3.8635,3.8634,3.8634,3.8647,3.8647,3.8634,3.8634,3.8634,3.8634,3.8634,3.8634,3.8583,3.8589,3.8593,3.8599,3.8604,3.8608,3.861,3.8612,3.8615,3.8618,3.8619,3.8622,3.8624,3.8624,3.8623,3.8624,3.8622,3.8619,3.862,3.8632,3.8634,3.8635,3.8635,3.862,3.862,3.8607,3.8607,3.8606]}]]